Location: Braunsdorf
(50.7357°N, 11.9136°E)
Time: 01:08:50
(UTC+00:00)

ADEOS - Pass Details

Date: 17 February 2020
Orbit: 793 x 794 km, 98.9° (Epoch: 05 April)

Event Time Altitude Azimuth Distance (km) Brightness Sun altitude
Rises 04:16:46 0° 10° (N) 3,310 7.0 -20.4°
Reaches altitude 10° 04:19:13 10° 3° (N) 2,376 6.1 -20.0°
Maximum altitude 04:24:03 39° 296° (WNW) 1,179 4.0 -19.2°
Enters shadow 04:24:59 36° 271° (W) 1,244 4.0 -19.1°
